• In Italy
  • List of Countries
  • For 7 days
  • Water Temperature
  • Satellite Maps
  • Weather Map
  • Weather Widgets
  • user-avatar
    Login

    Hourly Weather Pervomajskoe

    Today, 26 September, Wednesday

    Time Temperature Precipitation Wind Pressure Humidity
    00:00 +9°C° 0 mm 6 mps 761 mmHg 67%
    01:00 +9°C° 0 mm 5 mps 761 mmHg 68%
    02:00 +8°C° 0 mm 5 mps 761 mmHg 69%
    03:00 +8°C° 0 mm 5 mps 762 mmHg 71%
    04:00 +8°C° 0 mm 5 mps 762 mmHg 72%
    05:00 +7°C° 0 mm 5 mps 762 mmHg 73%
    06:00 +8°C° 0 mm 5 mps 763 mmHg 68%
    07:00 +9°C° 0 mm 5 mps 763 mmHg 64%
    08:00 +10°C° 0 mm 5 mps 763 mmHg 60%
    09:00 +12°C° 0 mm 5 mps 764 mmHg 54%
    10:00 +13°C° 0 mm 6 mps 764 mmHg 49%
    11:00 +14°C° 0 mm 6 mps 764 mmHg 44%
    12:00 +14°C° 0 mm 6 mps 764 mmHg 41%
    13:00 +14°C° 0 mm 5 mps 764 mmHg 39%
    14:00 +15°C° 0 mm 5 mps 764 mmHg 36%
    15:00 +14°C° 0 mm 5 mps 764 mmHg 37%
    16:00 +14°C° 0 mm 5 mps 764 mmHg 38%
    17:00 +13°C° 0 mm 5 mps 764 mmHg 39%
    18:00 +13°C° 0 mm 4 mps 764 mmHg 41%
    19:00 +12°C° 0 mm 4 mps 765 mmHg 43%
    20:00 +11°C° 0 mm 4 mps 765 mmHg 45%
    21:00 +11°C° 0 mm 4 mps 765 mmHg 46%
    22:00 +10°C° 0 mm 4 mps 765 mmHg 48%
    23:00 +10°C° 0 mm 4 mps 765 mmHg 49%

    Tomorrow, 27 September, Thursday

    Time Temperature Precipitation Wind Pressure Humidity
    00:00 +8°C° 0 mm 4 mps 765 mmHg 51%
    01:00 +8°C° 0 mm 4 mps 765 mmHg 53%
    02:00 +8°C° 0 mm 3 mps 765 mmHg 55%
    03:00 +8°C° 0 mm 3 mps 765 mmHg 57%
    04:00 +8°C° 0 mm 3 mps 765 mmHg 59%
    05:00 +8°C° 0 mm 3 mps 764 mmHg 61%
    06:00 +9°C° 0 mm 3 mps 764 mmHg 58%
    07:00 +10°C° 0 mm 2 mps 765 mmHg 55%
    08:00 +12°C° 0 mm 2 mps 765 mmHg 52%
    09:00 +13°C° 0 mm 2 mps 765 mmHg 46%
    10:00 +14°C° 0 mm 2 mps 765 mmHg 41%
    11:00 +15°C° 0 mm 2 mps 764 mmHg 35%
    12:00 +16°C° 0 mm 2 mps 764 mmHg 34%
    13:00 +16°C° 0 mm 2 mps 764 mmHg 32%
    14:00 +17°C° 0 mm 3 mps 763 mmHg 30%
    15:00 +16°C° 0 mm 3 mps 763 mmHg 33%
    16:00 +14°C° 0 mm 3 mps 762 mmHg 36%
    17:00 +14°C° 0 mm 3 mps 762 mmHg 39%
    18:00 +13°C° 0 mm 3 mps 762 mmHg 42%
    19:00 +13°C° 0 mm 2 mps 762 mmHg 46%
    20:00 +12°C° 0 mm 2 mps 762 mmHg 50%
    21:00 +12°C° 0 mm 2 mps 762 mmHg 51%
    22:00 +12°C° 0 mm 1 mps 762 mmHg 52%
    23:00 +11°C° 0 mm 1 mps 762 mmHg 53%

    Day after tomorrow, 28 September, Friday

    Time Temperature Precipitation Wind Pressure Humidity
    00:00 +10°C° 0 mm 2 mps 761 mmHg 54%
    01:00 +10°C° 0 mm 2 mps 761 mmHg 54%
    02:00 +10°C° 0 mm 2 mps 761 mmHg 55%
    03:00 +10°C° 0 mm 2 mps 760 mmHg 55%
    04:00 +10°C° 0 mm 2 mps 760 mmHg 56%
    05:00 +10°C° 0 mm 2 mps 760 mmHg 57%
    06:00 +13°C° 0 mm 2 mps 760 mmHg 53%
    07:00 +14°C° 0 mm 2 mps 759 mmHg 50%
    08:00 +14°C° 0 mm 3 mps 759 mmHg 46%
    09:00 +17°C° 0 mm 2 mps 759 mmHg 44%
    10:00 +18°C° 0 mm 2 mps 759 mmHg 41%
    11:00 +20°C° 0 mm 2 mps 759 mmHg 38%
    12:00 +20°C° 0 mm 2 mps 758 mmHg 38%
    13:00 +21°C° 0 mm 3 mps 758 mmHg 38%
    14:00 +21°C° 0 mm 3 mps 757 mmHg 38%
    15:00 +20°C° 0 mm 3 mps 757 mmHg 41%
    16:00 +20°C° 0 mm 3 mps 756 mmHg 44%
    17:00 +19°C° 0 mm 3 mps 756 mmHg 48%
    18:00 +18°C° 0 mm 2 mps 756 mmHg 52%
    19:00 +17°C° 0 mm 2 mps 756 mmHg 55%
    20:00 +16°C° 0 mm 2 mps 756 mmHg 59%
    21:00 +15°C° 0 mm 1 mps 756 mmHg 61%
    22:00 +15°C° 0 mm 1 mps 756 mmHg 63%
    23:00 +15°C° 0 mm 1 mps 756 mmHg 65%

    29 September, Saturday

    Time Temperature Precipitation Wind Pressure Humidity
    00:00 +15°C° 0 mm 1 mps 756 mmHg 66%
    01:00 +14°C° 0 mm 1 mps 756 mmHg 67%
    02:00 +14°C° 0 mm 1 mps 755 mmHg 68%
    03:00 +14°C° 0 mm 1 mps 755 mmHg 69%
    04:00 +14°C° 0 mm 1 mps 755 mmHg 70%
    05:00 +14°C° 0 mm 1 mps 755 mmHg 71%
    06:00 +15°C° 0 mm 1 mps 755 mmHg 66%
    07:00 +16°C° 0 mm 1 mps 755 mmHg 62%
    08:00 +17°C° 0 mm 2 mps 755 mmHg 57%
    09:00 +20°C° 0 mm 1 mps 755 mmHg 54%
    10:00 +21°C° 0 mm 1 mps 755 mmHg 50%
    11:00 +22°C° 0 mm 1 mps 755 mmHg 47%
    12:00 +23°C° 0 mm 1 mps 755 mmHg 46%
    13:00 +23°C° 0 mm 2 mps 754 mmHg 44%
    14:00 +24°C° 0 mm 2 mps 754 mmHg 43%
    15:00 +23°C° 0 mm 2 mps 754 mmHg 46%
    16:00 +21°C° 0 mm 2 mps 754 mmHg 48%
    17:00 +21°C° 0 mm 3 mps 754 mmHg 51%
    18:00 +20°C° 0 mm 3 mps 754 mmHg 53%
    19:00 +19°C° 0 mm 3 mps 754 mmHg 54%
    20:00 +18°C° 0 mm 3 mps 755 mmHg 56%
    21:00 +18°C° 0 mm 3 mps 755 mmHg 57%
    22:00 +17°C° 0 mm 2 mps 754 mmHg 58%
    23:00 +17°C° 0 mm 2 mps 754 mmHg 59%

    30 September, Sunday

    Time Temperature Precipitation Wind Pressure Humidity
    00:00 +16°C° 0 mm 2 mps 754 mmHg 60%
    01:00 +16°C° 0 mm 2 mps 755 mmHg 61%
    02:00 +16°C° 0 mm 2 mps 755 mmHg 63%
    03:00 +15°C° 0 mm 2 mps 755 mmHg 64%
    04:00 +14°C° 0 mm 3 mps 755 mmHg 65%
    05:00 +14°C° 0 mm 3 mps 755 mmHg 66%
    06:00 +16°C° 0 mm 3 mps 755 mmHg 62%
    07:00 +18°C° 0 mm 4 mps 756 mmHg 59%
    08:00 +19°C° 0 mm 4 mps 756 mmHg 55%
    09:00 +20°C° 0 mm 4 mps 756 mmHg 51%
    10:00 +22°C° 0 mm 5 mps 756 mmHg 47%
    11:00 +25°C° 0 mm 5 mps 756 mmHg 43%
    12:00 +25°C° 0 mm 5 mps 756 mmHg 43%
    13:00 +25°C° 0 mm 5 mps 755 mmHg 42%
    14:00 +24°C° 0 mm 6 mps 755 mmHg 42%
    15:00 +23°C° 0 mm 5 mps 755 mmHg 44%
    16:00 +23°C° 0 mm 5 mps 755 mmHg 46%
    17:00 +22°C° 0 mm 5 mps 755 mmHg 49%
    18:00 +21°C° 0 mm 5 mps 756 mmHg 53%
    19:00 +20°C° 0 mm 5 mps 756 mmHg 58%
    20:00 +18°C° 0 mm 4 mps 756 mmHg 62%
    21:00 +17°C° 0 mm 5 mps 756 mmHg 64%
    22:00 +17°C° 0 mm 5 mps 756 mmHg 67%
    23:00 +16°C° 0 mm 5 mps 755 mmHg 69%

    1 October, Monday

    Time Temperature Precipitation Wind Pressure Humidity
    00:00 +16°C° 0 mm 5 mps 755 mmHg 71%
    01:00 +16°C° 0 mm 5 mps 755 mmHg 74%
    02:00 +15°C° 0 mm 5 mps 755 mmHg 76%
    03:00 +15°C° 0 mm 6 mps 755 mmHg 77%
    04:00 +15°C° 0 mm 6 mps 754 mmHg 79%
    05:00 +14°C° 0 mm 6 mps 754 mmHg 80%
    06:00 +15°C° 0 mm 6 mps 754 mmHg 76%
    07:00 +16°C° 0 mm 6 mps 754 mmHg 72%
    08:00 +17°C° 0 mm 7 mps 754 mmHg 68%
    09:00 +20°C° 0 mm 7 mps 754 mmHg 62%
    10:00 +21°C° 0 mm 7 mps 754 mmHg 57%
    11:00 +22°C° 0 mm 7 mps 754 mmHg 52%
    12:00 +23°C° 0 mm 7 mps 753 mmHg 50%
    13:00 +23°C° 0 mm 7 mps 753 mmHg 49%
    14:00 +23°C° 0 mm 7 mps 752 mmHg 48%
    15:00 +22°C° 0 mm 7 mps 752 mmHg 51%
    16:00 +21°C° 0 mm 6 mps 752 mmHg 54%
    17:00 +20°C° 0 mm 6 mps 751 mmHg 57%
    18:00 +19°C° 0 mm 6 mps 751 mmHg 61%
    19:00 +17°C° 0 mm 5 mps 751 mmHg 65%
    20:00 +16°C° 0 mm 5 mps 751 mmHg 70%
    21:00 +17°C° 0 mm 4 mps 750 mmHg 71%
    22:00 +17°C° 0 mm 4 mps 750 mmHg 73%
    23:00 +17°C° 0 mm 4 mps 750 mmHg 74%
    Show more